St. Stephen, New Brunswick

4:55 AM ADT on April 22, 2018 (GMT -0300)
St. Stephen

Weather History for CWSS - January, 2013

Change the Weather History Date:

Tuesday, January 22, 2013

  Actual Average Record
Temperature  
Mean Temperature 4 °F -  
Max Temperature 11 °F - - ()
Min Temperature -4 °F - - ()
Degree Days  
Heating Degree Days 62    
Moisture  
Dew Point -7 °F    
Average Humidity 51    
Maximum Humidity 77    
Minimum Humidity 23    
Precipitation  
Precipitation 0.31 in - - ()
Sea Level Pressure  
Sea Level Pressure 29.86 in    
Wind  
Wind Speed 4 mph ()    
Max Wind Speed 9 mph    
Max Gust Speed 17 mph    
T = Trace of Precipitation, MM = Missing Value Source: Averaged Metar Reports

Daily Weather History Graph

Daily Weather History Graph

Search for Another Location

Airport or City:

Astronomy

Jan. 22, 2013 Rise Set
Actual Time 7:59 AM AST 5:22 PM AST
Civil Twilight 7:26 AM AST 5:54 PM AST
Nautical Twilight 6:50 AM AST 6:30 PM AST
Astronomical Twilight 6:16 AM AST 7:05 PM AST
Moon 1:40 PM AST 4:19 AM AST
Length of Visible Light 10h 27m
Length of Day
9h 23m
Waxing Gibbous, 82% of the Moon is Illuminated
Jan 22
Waxing Gibbous
Jan 27
Full
Feb 3
Last Quarter
Feb 10
New
Feb 17
First Quarter

Hourly Weather History & Observations

Time (AST) Temp. Windchill Dew Point Humidity Pressure Visibility Wind Dir Wind Speed Gust Speed Precip Events Conditions
12:00 AM 12.0 °F 4.1 °F -3.5 °F 50% 29.98 in - North 4.6 mph - N/A   Unknown
1:00 AM 11.5 °F - -3.3 °F 52% 29.94 in - NE 2.3 mph - N/A   Unknown
2:00 AM 10 °F - -4 °F 38% 29.90 in - ENE 3.5 mph - -  
2:00 AM 10.4 °F 4.0 °F -3.6 °F 53% 29.90 in - ENE 3.5 mph - N/A   Unknown
3:00 AM 9.5 °F 1.2 °F -3.5 °F 56% 29.86 in - NE 4.6 mph - N/A   Unknown
4:00 AM 8.2 °F -3.0 °F -4.0 °F 58% 29.85 in - NE 6.9 mph - N/A   Unknown
5:00 AM 7 °F - -5 °F 41% 29.86 in - North 3.5 mph - -  
5:00 AM 7.2 °F 0.3 °F -5.4 °F 56% 29.86 in - North 3.5 mph - N/A   Unknown
6:00 AM 6.6 °F - -6.3 °F 55% 29.84 in - North 2.3 mph - N/A   Unknown
7:00 AM 5.2 °F -1.9 °F -5.8 °F 61% 29.83 in - NNW 3.5 mph - N/A   Unknown
8:00 AM 3 °F - -6 °F 51% 29.83 in - NNW 3.5 mph - -  
8:00 AM 3.2 °F -4.2 °F -6.2 °F 65% 29.83 in - NNW 3.5 mph - N/A   Unknown
9:00 AM 3.2 °F -4.2 °F -7.8 °F 60% 29.84 in - North 3.5 mph - N/A   Unknown
10:00 AM 4.3 °F -10.0 °F -7.1 °F 59% 29.84 in - NNE 9.2 mph - N/A   Unknown
11:00 AM 5 °F - -7 °F 41% 29.83 in - North 9.2 mph - -  
11:00 AM 5.2 °F -8.9 °F -7.2 °F 57% 29.83 in - North 9.2 mph - N/A   Unknown
12:00 PM 7.7 °F -4.8 °F -6.5 °F 52% 29.80 in - North 8.1 mph 17.3 mph N/A   Unknown
1:00 PM 8.8 °F -2.4 °F -8.3 °F 46% 29.79 in - NW 6.9 mph - N/A   Unknown
2:00 PM 11 °F - -10 °F 23% 29.77 in - NNW 8.1 mph - -  
2:00 PM 10.6 °F -1.3 °F -9.8 °F 40% 29.77 in - NNW 8.1 mph - N/A   Unknown
3:00 PM 11.1 °F -0.6 °F -10.1 °F 38% 29.78 in - NW 8.1 mph - N/A   Unknown
4:00 PM 10.9 °F 0.2 °F -12.3 °F 35% 29.80 in - NW 6.9 mph - N/A   Unknown
5:00 PM 8 °F - -10 °F 27% 29.83 in - WNW 5.8 mph - -  
5:00 PM 8.1 °F -2.0 °F -9.9 °F 44% 29.83 in - WNW 5.8 mph - N/A   Unknown
6:00 PM 5.5 °F -3.4 °F -11.7 °F 45% 29.86 in - WNW 4.6 mph - N/A   Unknown
7:00 PM 3.9 °F -5.3 °F -10.7 °F 51% 29.88 in - WNW 4.6 mph - N/A   Unknown
8:00 PM 3 °F - -10 °F 39% 29.90 in - NW 3.5 mph - -  
8:00 PM 2.8 °F -4.6 °F -9.8 °F 56% 29.90 in - NW 3.5 mph - N/A   Unknown
9:00 PM 2.8 °F - -7.6 °F 62% 29.91 in - WNW 1.2 mph - N/A   Unknown
10:00 PM -1.3 °F - -8.5 °F 72% 29.91 in - Calm Calm - N/A   Unknown
11:00 PM -4 °F - -9 °F 67% 29.91 in - Calm Calm - -  
11:00 PM -3.8 °F - -9.4 °F 77% 29.91 in - Calm Calm - N/A   Unknown